| time (UTC) | temp C | wind direction | speed KPH | gust KPH | rain 1hr cm | rain 24hr cm | rain mn cm | humidity % | barometer mb |
| 20260505211528 | 17 | 269 | 1.6 | 9.7 | 0.00 | 0.00 | 0.00 | 69 | 1008.4 |
| 20260505210028 | 17 | 0 | 0.0 | 4.8 | 0.00 | 0.00 | 0.00 | 69 | 1008.5 |
| 20260505204530 | 17 | 279 | 1.6 | 6.4 | 0.00 | 0.00 | 0.00 | 69 | 1008.8 |
| 20260505203028 | 17 | 0 | 0.0 | 4.8 | 0.00 | 0.00 | 0.00 | 70 | 1009.0 |
| 20260505201530 | 17 | 0 | 0.0 | 9.7 | 0.00 | 0.00 | 0.00 | 70 | 1009.0 |
| 20260505200030 | 17 | 276 | 1.6 | 11.3 | 0.00 | 0.00 | 0.00 | 71 | 1009.2 |
| 20260505194534 | 18 | 277 | 1.6 | 6.4 | 0.00 | 0.00 | 0.00 | 71 | 1009.4 |
| 20260505193038 | 18 | 275 | 1.6 | 11.3 | 0.00 | 0.00 | 0.00 | 72 | 1009.6 |
| 20260505191544 | 18 | 277 | 4.8 | 14.5 | 0.00 | 0.00 | 0.00 | 72 | 1009.6 |
| 20260505190030 | 18 | 268 | 3.2 | 14.5 | 0.00 | 0.00 | 0.00 | 72 | 1009.8 |
| 20260505184529 | 18 | 271 | 4.8 | 17.7 | 0.00 | 0.00 | 0.00 | 72 | 1009.9 |
| 20260505183029 | 18 | 266 | 6.4 | 14.5 | 0.00 | 0.00 | 0.00 | 72 | 1010.2 |
| 20260505181530 | 18 | 269 | 4.8 | 20.9 | 0.00 | 0.00 | 0.00 | 72 | 1010.1 |
| 20260505180042 | 18 | 285 | 4.8 | 19.3 | 0.00 | 0.00 | 0.00 | 72 | 1009.9 |
| 20260505174537 | 18 | 262 | 4.8 | 17.7 | 0.00 | 0.00 | 0.00 | 72 | 1009.9 |
| 20260505173030 | 18 | 279 | 8.0 | 17.7 | 0.00 | 0.00 | 0.00 | 72 | 1010.3 |
| 20260505171533 | 18 | 288 | 4.8 | 14.5 | 0.00 | 0.00 | 0.00 | 72 | 1010.5 |
| 20260505170032 | 17 | 267 | 4.8 | 16.1 | 0.00 | 0.00 | 0.00 | 72 | 1010.6 |
| 20260505164532 | 17 | 258 | 6.4 | 19.3 | 0.00 | 0.00 | 0.00 | 72 | 1010.7 |
| 20260505163028 | 17 | 120 | 8.0 | 22.5 | 0.00 | 0.00 | 0.00 | 72 | 1010.9 |
| 20260505161528 | 17 | 270 | 8.0 | 19.3 | 0.00 | 0.00 | 0.00 | 71 | 1011.1 |
| 20260505153035 | 17 | 273 | 3.2 | 14.5 | 0.00 | 0.00 | 0.00 | 68 | 1011.2 |
| 20260505151533 | 16 | 274 | 1.6 | 12.9 | 0.00 | 0.00 | 0.00 | 68 | 1011.0 |
| 20260505124528 | 15 | 0 | 0.0 | 6.4 | 0.00 | 0.08 | 0.00 | 63 | 1011.2 |
| 20260505123049 | 15 | 0 | 0.0 | 4.8 | 0.00 | 0.08 | 0.00 | 64 | 1011.1 |
| 20260505121530 | 15 | 269 | 0.0 | 6.4 | 0.00 | 0.08 | 0.00 | 64 | 1011.0 |
| 20260505120030 | 15 | 263 | 0.0 | 4.8 | 0.00 | 0.08 | 0.00 | 65 | 1011.0 |
| 20260505114528 | 15 | 258 | 0.0 | 3.2 | 0.00 | 0.15 | 0.00 | 66 | 1010.9 |
| 20260505113037 | 15 | 0 | 0.0 | 1.6 | 0.00 | 0.15 | 0.00 | 66 | 1010.8 |
| 20260505111550 | 15 | 0 | 0.0 | 1.6 | 0.00 | 0.15 | 0.00 | 67 | 1010.8 |
| 20260505101534 | 15 | 265 | 0.0 | 4.8 | 0.00 | 0.15 | 0.00 | 69 | 1010.3 |
| 20260505100045 | 15 | 263 | 1.6 | 4.8 | 0.00 | 0.15 | 0.00 | 70 | 1010.1 |
| 20260505094530 | 15 | 0 | 0.0 | 4.8 | 0.00 | 0.18 | 0.00 | 70 | 1009.9 |
| 20260505093030 | 15 | 275 | 0.0 | 4.8 | 0.00 | 0.18 | 0.00 | 71 | 1009.8 |
| 20260505091534 | 15 | 0 | 1.6 | 9.7 | 0.00 | 0.18 | 0.00 | 72 | 1009.3 |
| 20260505090034 | 15 | 267 | 1.6 | 9.7 | 0.00 | 0.18 | 0.00 | 71 | 1009.3 |
| 20260505084527 | 15 | 281 | 1.6 | 6.4 | 0.00 | 0.18 | 0.00 | 72 | 1009.4 |
| 20260505083035 | 15 | 261 | 1.6 | 9.7 | 0.00 | 0.18 | 0.00 | 72 | 1009.3 |
| 20260505081533 | 16 | 0 | 1.6 | 9.7 | 0.00 | 0.18 | 0.00 | 72 | 1009.2 |
| 20260505080036 | 16 | 275 | 1.6 | 9.7 | 0.00 | 0.18 | 0.00 | 72 | 1009.1 |
| 20260505074528 | 16 | 273 | 1.6 | 6.4 | 0.00 | 0.18 | 0.00 | 72 | 1009.0 |
| 20260505073030 | 16 | 274 | 1.6 | 6.4 | 0.00 | 0.18 | 0.00 | 72 | 1009.1 |
| 20260505071535 | 16 | 123 | 1.6 | 9.7 | 0.00 | 0.18 | 0.00 | 72 | 1008.9 |
| 20260505070038 | 16 | 253 | 1.6 | 12.9 | 0.00 | 0.18 | 0.00 | 72 | 1008.8 |
| 20260505064550 | 16 | 275 | 3.2 | 14.5 | 0.00 | 0.18 | 0.00 | 72 | 1008.9 |
| 20260505063031 | 16 | 271 | 3.2 | 14.5 | 0.00 | 0.18 | 0.00 | 72 | 1008.8 |
| 20260505061609 | 16 | 304 | 3.2 | 14.5 | 0.00 | 0.18 | 0.00 | 72 | 1008.7 |
| 20260505061539 | 16 | 304 | 3.2 | 14.5 | 0.00 | 0.18 | 0.00 | 72 | 1008.7 |
| 20260505060032 | 16 | 266 | 3.2 | 14.5 | 0.00 | 0.18 | 0.00 | 72 | 1009.0 |
| 20260505054531 | 16 | 280 | 3.2 | 12.9 | 0.00 | 0.18 | 0.00 | 72 | 1008.7 |
| 20260505053028 | 16 | 277 | 3.2 | 9.7 | 0.00 | 0.18 | 0.00 | 72 | 1008.5 |
| 20260505051528 | 17 | 272 | 1.6 | 9.7 | 0.00 | 0.18 | 0.00 | 72 | 1008.7 |
| 20260505041534 | 17 | 254 | 0.0 | 3.2 | 0.00 | 0.18 | 0.00 | 72 | 1009.0 |
| 20260505040030 | 17 | 253 | 1.6 | 4.8 | 0.00 | 0.18 | 0.00 | 72 | 1009.1 |
| 20260505034532 | 18 | 269 | 0.0 | 4.8 | 0.00 | 0.18 | 0.18 | 72 | 1009.1 |
| 20260505033032 | 18 | 269 | 0.0 | 4.8 | 0.00 | 0.18 | 0.18 | 72 | 1008.8 |
| 20260505031528 | 18 | 0 | 0.0 | 4.8 | 0.00 | 0.18 | 0.18 | 72 | 1008.5 |
| 20260505030028 | 18 | 0 | 0.0 | 6.4 | 0.00 | 0.18 | 0.18 | 72 | 1008.5 |
| 20260505024540 | 18 | 0 | 0.0 | 4.8 | 0.00 | 0.18 | 0.18 | 71 | 1008.3 |
| 20260505023028 | 18 | 304 | 1.6 | 4.8 | 0.00 | 0.18 | 0.18 | 71 | 1008.0 |
| 20260505021536 | 18 | 265 | 0.0 | 6.4 | 0.00 | 0.18 | 0.18 | 71 | 1007.7 |
| 20260505020033 | 19 | 0 | 1.6 | 9.7 | 0.00 | 0.18 | 0.18 | 71 | 1007.4 |
| 20260505014536 | 19 | 280 | 1.6 | 11.3 | 0.00 | 0.18 | 0.18 | 71 | 1007.1 |
| 20260505013031 | 20 | 0 | 0.0 | 4.8 | 0.00 | 0.18 | 0.18 | 70 | 1007.1 |
| 20260505011533 | 20 | 270 | 1.6 | 9.7 | 0.00 | 0.18 | 0.18 | 70 | 1007.1 |
| 20260505010028 | 20 | 275 | 3.2 | 11.3 | 0.00 | 0.18 | 0.18 | 68 | 1007.1 |
| 20260505004532 | 20 | 0 | 1.6 | 127.1 | 0.00 | 0.18 | 0.18 | 69 | 1006.8 |
| 20260505003032 | 20 | 254 | 1.6 | 9.7 | 0.00 | 0.18 | 0.18 | 69 | 1006.9 |
| 20260505001535 | 21 | 282 | 1.6 | 9.7 | 0.00 | 0.18 | 0.18 | 69 | 1007.0 |
| 20260505000039 | 21 | 315 | 3.2 | 11.3 | 0.00 | 0.18 | 0.18 | 68 | 1007.0 |
| 20260504234530 | 21 | 271 | 1.6 | 14.5 | 0.00 | 0.18 | 0.18 | 68 | 1007.2 |
| 20260504233029 | 21 | 262 | 1.6 | 9.7 | 0.00 | 0.18 | 0.18 | 68 | 1007.7 |
| 20260504231540 | 21 | 254 | 1.6 | 11.3 | 0.00 | 0.18 | 0.18 | 67 | 1008.1 |
| 20260504230033 | 21 | 266 | 4.8 | 16.1 | 0.00 | 0.18 | 0.18 | 66 | 1008.2 |
| 20260504224536 | 22 | 271 | 3.2 | 11.3 | 0.00 | 0.18 | 0.18 | 66 | 1008.6 |
| 20260504223028 | 22 | 269 | 6.4 | 14.5 | 0.00 | 0.18 | 0.18 | 66 | 1008.5 |
| 20260504221528 | 22 | 269 | 1.6 | 19.3 | 0.00 | 0.18 | 0.18 | 66 | 1008.8 |
| 20260504220034 | 22 | 283 | 3.2 | 20.9 | 0.00 | 0.18 | 0.18 | 66 | 1008.6 |
| 20260504214532 | 23 | 268 | 6.4 | 17.7 | 0.00 | 0.18 | 0.18 | 66 | 1008.6 |
| 20260504213028 | 23 | 87 | 6.4 | 17.7 | 0.00 | 0.18 | 0.18 | 66 | 1008.4 |